Location: Unspecified
(48.2082°N, 0.0000°E)
Time: 18:09:26
(UTC+00:00)

S-56A Canister/Altair - Pass Details

Date: 22 June 2019
Orbit: 633 x 2499 km, 38.9° (Epoch: 22 August)

Event Time Altitude Azimuth Distance (km) Brightness Sun altitude
Rises 13:31:22 0° 194° (SSW) 5,553 12.3 59.6°
Reaches altitude 10° 13:37:50 10° 172° (S) 4,128 11.7 58.8°
Maximum altitude 13:42:16 13° 147° (SSE) 3,517 11.1 58.3°
Drops below altitude 10° 13:46:07 10° 121° (ESE) 3,472 10.9 57.8°
Sets 13:50:33 0° 96° (E) 4,058 11.0 57.2°
